Location: Whitehorse
(60.7170°N, 135.0500°W)
Time: 17:10:25
(UTC-08:00)

Envisat - Pass Details

Date: 27 October 2019
Orbit: 764 x 766 km, 98.1° (Epoch: 14 November)

Event Time Altitude Azimuth Distance (km) Brightness Sun altitude
Rises 08:09:40 0° 19° (NNE) 3,247 6.3 -8.1°
Reaches altitude 10° 08:12:17 10° 31° (NNE) 2,316 5.7 -7.8°
Maximum altitude 08:16:44 30° 91° (E) 1,368 5.3 -7.2°
Drops below altitude 10° 08:21:09 10° 152° (SSE) 2,301 6.1 -6.7°
Sets 08:23:43 0° 163° (SSE) 3,223 6.7 -6.4°
